This demonstration page uses our WeatherBlox Daily Observations layout. Learn more.

Left ArrowRight Arrow

38.88101, -77.10428

Hourly Observations for June 2, 2023

Temp ( °F °C ) Dew Point ( °F °C ) Humidity (%) Winds ( mph kmh ) Pressure ( in mb ) Visibility ( mi km ) Precip ( " mm )
12:52 am 00:52 Clear 68 20 60 15.6 76 76 NNW 6 9 30.01 1016 7 11 0.00 0.00
1:52 am 01:52 Clear 67 19.4 59 15 76 76 NNW 6 9 29.99 1016 8 13 0.00 0.00
2:52 am 02:52 Clear 66 18.9 58 14.4 75 75 NNW 5 7 29.98 1015 8 13 0.00 0.00
3:52 am 03:52 Hazy 65 18.3 58 14.4 78 78 N 6 9 29.96 1015 6 10 0.00 0.00
4:52 am 04:52 Clear 64 17.8 58 14.4 80 80 N 6 9 29.95 1014 7 11 0.00 0.00
5:52 am 05:52 Hazy 65 18.3 60 15.6 84 84 NE 5 7 29.96 1014 5 8 0.00 0.00
6:52 am 06:52 Hazy 66 18.9 61 16.1 84 84 NNE 5 7 29.97 1015 5 8 0.00 0.00
7:52 am 07:52 Hazy 69 20.6 60 15.6 73 73 NNE 3 6 29.96 1015 5 8 0.00 0.00
8:52 am 08:52 Hazy 74 23.3 60 15.6 62 62 Calm 29.97 1015 6 10 0.00 0.00
9:52 am 09:52 Hazy 78 25.6 60 15.6 54 54 Calm 29.97 1015 6 10 0.00 0.00
10:52 am 10:52 Sunny 81 27.2 61 16.1 51 51 E 5 7 29.96 1015 8 13 0.00 0.00
11:52 am 11:52 Sunny 85 29.4 58 14.4 40 40 SE 3 6 29.96 1014 10 16 0.00 0.00
12:52 pm 12:52 Mostly Sunny 89 31.7 56 13.3 33 33 Calm 29.93 1014 10 16 0.00 0.00
1:52 pm 13:52 Mostly Sunny 91 32.8 57 13.9 32 32 Calm 29.91 1013 10 16 0.00 0.00
2:52 pm 14:52 Mostly Sunny 92 33.3 55 12.8 29 29 VRB 5 7 29.88 1012 10 16 0.00 0.00
3:52 pm 15:52 Partly Cloudy 91 32.8 55 12.8 30 30 ENE 5 7 29.85 1011 10 16 0.00 0.00
4:52 pm 16:52 Partly Cloudy 93 33.9 55 12.8 28 28 NNW 6 9 29.84 1010 10 16 0.00 0.00
5:52 pm 17:52 Mostly Sunny 90 32.2 56 13.3 32 32 VRB 3 6 29.82 1010 10 16 0.00 0.00
6:52 pm 18:52 Mostly Cloudy 89 31.7 59 15 36 36 E 6 9 29.82 1010 10 16 0.00 0.00
7:52 pm 19:52 Mostly Cloudy 84 28.9 65 18.3 53 53 S 10 17 29.83 1010 10 16 0.00 0.00
8:52 pm 20:52 Partly Cloudy 81 27.2 66 18.9 61 61 S 6 9 29.84 1010 10 16 0.00 0.00
9:52 pm 21:52 Mostly Clear 78 25.6 68 20 71 71 S 8 13 29.84 1011 10 16 0.00 0.00
10:52 pm 22:52 Mostly Clear 77 25 68 20 74 74 S 5 7 29.83 1010 10 16 0.00 0.00
11:52 pm 23:52 Partly Cloudy 77 25 66 18.9 69 69 Calm 29.84 1011 10 16 0.00 0.00

Powered by AerisWeather